Location: Boiro
(42.6475°N, 8.8834°W)
Time: 18:40:01
(UTC+01:00)

Transit 2A - Pass Details

Date: 04 December 2021
Orbit: 591 x 967 km, 66.7° (Epoch: 20 January)

Event Time Altitude Azimuth Distance (km) Brightness Sun altitude
Rises 10:02:26 0° 330° (NNW) 3,661 8.9 10.0°
Reaches altitude 10° 10:05:04 10° 334° (NNW) 2,713 8.3 10.3°
Maximum altitude 10:11:27 66° 56° (NE) 1,035 7.0 11.1°
Drops below altitude 10° 10:17:31 10° 138° (SE) 2,589 12.5 11.9°
Sets 10:19:58 0° 142° (SE) 3,483 11.5 12.2°
